Погода в Фрунзенском

Россия / Чеченская Республика     43°38′06″N   45°39′44″E
темп.,
°C
ветер,
м/с
пор.,
м/с
влажн.,
%
обл.,
%
осадки,
мм/ч
давл.,
гПа
погр.,
м
6 мая, чт
чт600:00+10юв356398 0.0 1018101
03:00+10вюв3862100 0.0 1017147
06:00+11в51260100 0.0 1017363
09:00+17вюв9113627 0.0 10161086
12:00+19в910320 0.0 10151392
15:00+19вюв910360 0.0 10141273
18:00+16в710485 0.0 1015862
21:00+12в5125911 0.0 1016415
7 мая, пт
пт700:00+10в51173100 0.0 1015392
03:00+9в368483 0.0 1015212
06:00+9юв2384100 0.0 1016154
09:00+14ююв1159100 0.0 1017558
12:00+19с004433 0.0 10161000
15:00+22св22360 0.0 10161378
18:00+22всв12420 0.0 1016303
21:00+15вюв58715 0.0 1019208
8 мая, сб
сб800:00+13юв35765 0.0 1018115
03:00+12юв34800 0.0 101878
06:00+13вюв34795 0.0 1018122
09:00+19в56500 0.0 1017610
12:00+24в77355 0.0 10151252
15:00+23в89385 0.0 10141143
18:00+19в61058100 0.0 1014597
21:00+14в51171100 0.0 1013404
9 мая, вс
вс900:00+13в478393 0.0 1011297
03:00+12вюв23925 0.0 101069
06:00+12вюв349226 0.0 1008175
09:00+18всв0169100 0.0 1007518
12:00+25в544988 0.0 1005886
15:00+27сз7742100 0.0 10062007
18:00+20сз101459100 0.1 10111017
21:00+11зсз121772100 0.9 10191044
10 мая, пн
пн1000:00+8з71580100 2.0 10231304
03:00+9з81278100 2.8 10231176
06:00+8зюз71076100 0.3 1024997
09:00+9юз81070100 0.9 10241033
12:00+13зюз685091 0.1 10221662
15:00+17з463873 0.1 10202300
18:00+15зюз45465 0.0 1020485
21:00+12зюз335434 0.0 102146